0 HST 1 20580U 90037B 26149.56114721 .00007052 00000-0 22436-3 0 9997 2 20580 28.4725 207.8555 0001399 307.2150 52.8318 15.30538392785711 0 ISS (ZARYA) 1 25544U 98067A 26150.13051462 .00013825 00000-0 25414-3 0 9994 2 25544 51.6337 29.4904 0007252 113.3793 246.7959 15.49488485568959 0 CXO 1 25867U 99040B 26150.86411335 .00000496 00000-0 00000-0 0 9994 2 25867 55.8837 117.1443 7862481 310.3837 0.0320 0.37800688 17258